Midland City, AL

4:49 AM CDT on September 27, 2016 (GMT -0500)
Dothan Regional

Weather History for KDHN - January, 2012

Change the Weather History Date:

Monday, January 9, 2012

  Actual Average Record
Temperature  
Mean Temperature 64 °F 48 °F  
Max Temperature 73 °F 60 °F 81 °F (1957)
Min Temperature 53 °F 38 °F 21 °F (1958)
Degree Days  
Heating Degree Days 2 17  
Month to date heating degree days 149  
Since 1 July heating degree days 862  
Growing Degree Days 14 (Base 50)    
Moisture  
Dew Point 55 °F    
Average Humidity 87    
Maximum Humidity 100    
Minimum Humidity 46    
Precipitation  
Precipitation 0.00 in 0.12 in 0.70 in (1953)
Month to date precipitation 1.29  
Year to date precipitation 1.29  
Sea Level Pressure  
Sea Level Pressure 30.19 in    
Wind  
Wind Speed 4 mph (South)    
Max Wind Speed 10 mph    
Max Gust Speed -    
Visibility 6 miles    
Events Fog    
T = Trace of Precipitation, MM = Missing Value Source: NWS Daily Summary

Daily Weather History Graph

Daily Weather History Graph

Search for Another Location

Airport or City:

Trip Planner

Search our weather history database for the weather conditions in past years. The results will help you decide how hot, cold, wet, or windy it might be!

Date:

Astronomy

Jan. 09, 2012 Rise Set
Actual Time 6:41 AM CST 4:56 PM CST
Civil Twilight 6:15 AM CST 5:22 PM CST
Nautical Twilight 5:45 AM CST 5:52 PM CST
Astronomical Twilight 5:15 AM CST 6:21 PM CST
Moon 5:37 PM CST (1/9) 6:44 AM CST (1/9)
Length of Visible Light 11h 07m
Length of Day
10h 14m
Full, 100% of the Moon is Illuminated
Jan 9
Full
Jan 16
Last Quarter
Jan 23
New
Jan 30
First Quarter
Feb 7
Full

Hourly Weather History & Observations

Time (CST) Temp. Dew Point Humidity Pressure Visibility Wind Dir Wind Speed Gust Speed Precip Events Conditions
12:53 AM 57.0 °F 55.9 °F 96% 30.20 in 7.0 mi South 4.6 mph - N/A   Scattered Clouds
1:45 AM 55.4 °F 55.4 °F 100% 30.21 in 1.5 mi SSW 3.5 mph - N/A   Scattered Clouds
1:53 AM 55.9 °F 55.9 °F 100% 30.20 in 0.8 mi SSW 3.5 mph - N/A   Mostly Cloudy
2:08 AM 57.2 °F 55.4 °F 94% 30.21 in 0.2 mi SW 3.5 mph - N/A Fog Fog
2:19 AM 57.2 °F 57.2 °F 100% 30.21 in 0.2 mi SW 4.6 mph - N/A Fog Fog
2:53 AM 57.0 °F 57.0 °F 100% 30.20 in 0.2 mi SW 4.6 mph - N/A Fog Fog
3:53 AM 57.9 °F 57.9 °F 100% 30.20 in 0.2 mi SSW 4.6 mph - N/A Fog Fog
4:53 AM 57.9 °F 57.9 °F 100% 30.21 in 0.2 mi SW 3.5 mph - N/A Fog Fog
5:53 AM 57.9 °F 57.9 °F 100% 30.21 in 0.2 mi Calm Calm - N/A Fog Fog
6:53 AM 57.0 °F 57.0 °F 100% 30.22 in 0.2 mi Calm Calm - N/A Fog Fog
7:53 AM 57.9 °F 57.0 °F 97% 30.22 in 0.2 mi Calm Calm - N/A Fog Fog
8:26 AM 57.2 °F 57.2 °F 100% 30.24 in 0.8 mi ENE 3.5 mph - N/A   Mist
8:49 AM 57.2 °F 57.2 °F 100% 30.25 in 2.0 mi Calm Calm - N/A   Overcast
8:50 AM 57.9 °F 57.9 °F 100% 30.24 in 2.5 mi Calm Calm - N/A   Overcast
9:39 AM 59.0 °F 57.2 °F 94% 30.24 in 5.0 mi East 3.5 mph - N/A   Mostly Cloudy
9:49 AM 59.0 °F 59.0 °F 100% 30.24 in 5.0 mi Calm Calm - N/A   Scattered Clouds
9:53 AM 59.0 °F 59.0 °F 100% 30.24 in 5.0 mi ESE 3.5 mph - N/A   Scattered Clouds
10:53 AM 63.0 °F 57.9 °F 84% 30.22 in 10.0 mi South 5.8 mph - N/A   Clear
11:53 AM 64.9 °F 57.0 °F 75% 30.19 in 10.0 mi Calm Calm - N/A   Scattered Clouds
12:53 PM 70.0 °F 54.0 °F 57% 30.17 in 10.0 mi South 10.4 mph - N/A   Clear
1:53 PM 73.0 °F 51.1 °F 46% 30.15 in 10.0 mi SSW 9.2 mph - N/A   Scattered Clouds
2:53 PM 71.1 °F 51.1 °F 49% 30.14 in 10.0 mi South 10.4 mph - N/A   Clear
3:53 PM 71.1 °F 52.0 °F 51% 30.14 in 10.0 mi SSW 9.2 mph - N/A   Clear
4:53 PM 66.9 °F 53.1 °F 61% 30.13 in 10.0 mi South 3.5 mph - N/A   Clear
5:53 PM 64.0 °F 53.1 °F 67% 30.14 in 10.0 mi South 3.5 mph - N/A   Clear
6:53 PM 62.1 °F 54.0 °F 75% 30.14 in 10.0 mi SSW 5.8 mph - N/A   Clear
7:53 PM 60.8 °F 53.6 °F 77% 30.14 in 10.0 mi SSW 4.6 mph - N/A   Clear
8:53 PM 59.0 °F 54.0 °F 83% 30.13 in 10.0 mi South 5.8 mph - N/A   Clear
9:53 PM 55.9 °F 53.1 °F 90% 30.14 in 10.0 mi South 3.5 mph - N/A   Clear
10:53 PM 54.0 °F 52.0 °F 93% 30.13 in 10.0 mi Calm Calm - N/A   Clear
11:53 PM 53.1 °F 51.1 °F 93% 30.11 in 9.0 mi Calm Calm - N/A   Clear